This demonstration page uses our WeatherBlox Daily Observations layout. Learn more.

Left ArrowRight Arrow

39.51506, -84.39828

Hourly Observations for September 15, 2015

Temp ( °F °C ) Dew Point ( °F °C ) Humidity (%) Winds ( mph kmh ) Pressure ( in mb ) Visibility ( mi km ) Precip ( " mm )
12:15 am 00:15 Clear 55 12.5 51 10.5 88 88 Calm 30.27 1025 10 16.0934 0 0
12:35 am 00:35 Clear 55 12.5 51 10.5 88 88 Calm 30.27 1025 10 16.0934 0 0
12:55 am 00:55 Clear 55 12.5 51 10.6 88 88 Calm 30.27 1025 10 16.0934 0 0
1:15 am 01:15 Clear 55 12.5 51 10.6 88 88 Calm 30.27 1025 7 11.26538 0 0
1:35 am 01:35 Clear 55 12.5 51 10.6 88 88 Calm 30.27 1025 10 16.0934 0 0
1:55 am 01:55 Clear 55 12.5 51 10.7 89 89 Calm 30.27 1025 7 11.26538 0 0
2:15 am 02:15 Clear 54 12.4 51 10.6 89 89 Calm 30.27 1025 10 16.0934 0 0
2:35 am 02:35 Clear 53 11.6 50 9.9 89 89 Calm 30.27 1025 10 16.0934 0 0
2:55 am 02:55 Clear 54 12 51 10.3 89 89 Calm 30.27 1025 10 16.0934 0 0
3:15 am 03:15 Clear 51 10.3 48 8.7 90 90 Calm 30.3 1026 10 16.0934 0 0
3:35 am 03:35 Clear 52 11 49 9.5 91 91 Calm 30.3 1026 7 11.26538 0 0
3:55 am 03:55 Clear 52 11 49 9.5 91 91 Calm 30.3 1026 10 16.0934 0 0
4:15 am 04:15 Clear 51 10.5 48 8.9 90 90 Calm 30.3 1026 7 11.26538 0 0
4:35 am 04:35 Clear 49 9.7 47 8.1 90 90 Calm 30.3 1026 7 11.26538 0 0
4:55 am 04:55 Clear 49 9.6 46 8 90 90 Calm 30.3 1026 7 11.26538 0 0
5:15 am 05:15 Clear 49 9.6 46 8 90 90 Calm 30.3 1026 10 16.0934 0 0
5:35 am 05:35 Clear 49 9.6 46 8 90 90 Calm 30.3 1026 7 11.26538 0 0
5:55 am 05:55 Clear 49 9.6 46 8 90 90 Calm 30.33 1027 7 11.26538 0 0
6:15 am 06:15 Clear 49 9.6 47 8.1 90 90 Calm 30.33 1027 10 16.0934 0 0
6:35 am 06:35 Clear with Mist and Fog 49 9.6 47 8.1 90 90 Calm 30.33 1027 3 4.82802 0 0
6:55 am 06:55 Clear with Mist and Fog 49 9.6 46 8 90 90 Calm 30.33 1027 4 6.43736 0 0
7:15 am 07:15 Clear 49 9.6 47 8.1 90 90 Calm 30.33 1027 7 11.26538 0 0
7:35 am 07:35 Sunny with Mist and Fog 49 9.6 47 8.1 90 90 Calm 30.33 1027 5 8.0467 0 0
7:55 am 07:55 Sunny with Mist and Fog 49 9.6 47 8.2 91 91 Calm 30.36 1028 4 6.43736 0 0
8:15 am 08:15 Sunny 52 10.9 49 9.5 91 91 Calm 30.36 1028 10 16.0934 0 0
8:35 am 08:35 Sunny 55 12.5 52 11 91 91 Calm 30.36 1028 10 16.0934 0 0
8:55 am 08:55 Sunny 57 13.8 54 12.2 90 90 Calm 30.36 1028 10 16.0934 0 0
9:15 am 09:15 Sunny 59 14.9 55 12.5 86 86 Calm 30.36 1028 10 16.0934 0 0
9:35 am 09:35 Sunny 60 15.4 53 11.8 79 79 Calm 30.36 1028 10 16.0934 0 0
9:55 am 09:55 Sunny 62 16.7 54 12.2 75 75 Calm 30.36 1028 10 16.0934 0 0
10:15 am 10:15 Sunny 66 18.7 56 13.4 71 71 Calm 30.33 1027 10 16.0934 0 0
10:35 am 10:35 Sunny 69 20.8 57 14 65 65 Calm 30.36 1028 10 16.0934 0 0
11:00 am 11:00 Sunny 69 20.8 53 11.8 57 57 Calm 30.36 1028 10 16.0934 0 0
11:15 am 11:15 Sunny 72 22.4 55 12.5 54 54 SSE 5 7 30.36 1028 10 16.0934 0 0
11:35 am 11:35 Sunny 74 23.6 53 11.9 48 48 S 3 6 30.36 1028 10 16.0934 0 0
11:55 am 11:55 Sunny 74 23.6 53 11.6 47 47 SW 3 6 30.33 1027 10 16.0934 0 0
12:15 pm 12:15 Sunny 74 23.6 52 11.2 46 46 SW 3 6 30.33 1027 10 16.0934 0 0
12:35 pm 12:35 Sunny 77 25.1 54 12.3 45 45 W 5 7 30.33 1027 10 16.0934 0 0
12:55 pm 12:55 Sunny 77 25.1 51 10.5 40 40 SW 5 7 30.33 1027 10 16.0934 0 0
1:15 pm 13:15 Sunny 77 25.1 49 9.5 37 37 SSE 3 6 30.33 1027 10 16.0934 0 0
1:35 pm 13:35 Sunny 79 26.3 50 10.1 36 36 E 5 7 30.33 1027 10 16.0934 0 0
1:55 pm 13:55 Sunny 80 26.5 48 9 33 33 S 5 7 30.3 1026 10 16.0934 0 0
2:15 pm 14:15 Sunny 80 26.5 48 9 33 33 SSE 6 9 30.3 1026 10 16.0934 0 0
2:35 pm 14:35 Sunny 80 26.5 48 8.9 33 33 ESE 6 9 30.3 1026 10 16.0934 0 0
2:55 pm 14:55 Sunny 80 26.5 49 9.2 34 34 S 5 7 30.3 1026 10 16.0934 0 0
3:15 pm 15:15 Sunny 80 26.5 47 8.2 31 31 SE 8 13 30.27 1025 10 16.0934 0 0
3:35 pm 15:35 Sunny 80 26.7 46 7.5 30 30 ESE 8 13 30.27 1025 10 16.0934 0 0
3:55 pm 15:55 Sunny 80 26.5 47 8.1 31 31 SE 3 6 30.27 1025 10 16.0934 0 0
4:15 pm 16:15 Sunny 80 26.8 47 8.5 32 32 SE 6 9 30.27 1025 10 16.0934 0 0
4:35 pm 16:35 Sunny 81 27.2 47 8.6 31 31 SSW 10 17 30.27 1025 10 16.0934 0 0
4:55 pm 16:55 Sunny 81 27.2 47 8.2 30 30 SSW 3 6 30.27 1025 10 16.0934 0 0
5:15 pm 17:15 Sunny 81 27.2 45 7 28 28 Calm 30.27 1025 10 16.0934 0 0
5:35 pm 17:35 Sunny 81 27.2 45 7 28 28 SSE 6 9 30.27 1025 10 16.0934 0 0
5:55 pm 17:55 Sunny 81 27.2 45 7.4 29 29 S 7 11 30.27 1025 10 16.0934 0 0
6:15 pm 18:15 Sunny 80 26.5 44 6.5 28 28 S 8 13 30.27 1025 10 16.0934 0 0
6:35 pm 18:35 Sunny 80 26.5 45 7 29 29 ESE 7 11 30.27 1025 10 16.0934 0 0
6:55 pm 18:55 Sunny 80 26.5 46 7.7 30 30 SE 7 11 30.24 1024 10 16.0934 0 0
7:15 pm 19:15 Sunny 77 25.2 46 7.5 32 32 SE 6 9 30.27 1025 10 16.0934 0 0
7:35 pm 19:35 Sunny 77 25.1 48 9.1 36 36 SE 3 6 30.27 1025 10 16.0934 0 0
7:55 pm 19:55 Clear 69 20.8 57 14 65 65 Calm 30.27 1025 10 16.0934 0 0
8:15 pm 20:15 Clear 64 18 56 13.5 75 75 Calm 30.3 1026 10 16.0934 0 0
8:35 pm 20:35 Clear 63 17.1 56 13.5 80 80 Calm 30.3 1026 7 11.26538 0 0
8:55 pm 20:55 Clear 62 16.6 55 13 79 79 Calm 30.3 1026 10 16.0934 0 0
9:15 pm 21:15 Clear 62 16.6 56 13.1 80 80 Calm 30.3 1026 10 16.0934 0 0
9:35 pm 21:35 Clear 61 16 55 13 83 83 NNE 3 6 30.3 1026 10 16.0934 0 0
9:55 pm 21:55 Clear 60 15.4 55 12.6 84 84 Calm 30.3 1026 10 16.0934 0 0
10:15 pm 22:15 Clear 60 15.3 55 12.8 85 85 Calm 30.3 1026 10 16.0934 0 0
10:35 pm 22:35 Clear 60 15.3 55 13 86 86 Calm 30.3 1026 10 16.0934 0 0
10:55 pm 22:55 Clear 58 14.7 55 12.6 87 87 Calm 30.3 1026 10 16.0934 0 0
11:15 pm 23:15 Clear 57 13.8 53 11.8 88 88 Calm 30.33 1027 10 16.0934 0 0
11:35 pm 23:35 Clear 57 13.8 53 11.8 88 88 Calm 30.33 1027 10 16.0934 0 0
11:55 pm 23:55 Clear 57 13.8 53 11.9 88 88 Calm 30.3 1026 10 16.0934 0 0

Powered by AerisWeather